CW1129 Weather Reports


Display with metric or nautical units.
time (UTC)temp
F
wind
direction
speed
MPH
gust
MPH
rain 1hr
in
rain 24hr
in
rain mn
in
humidity
%
barometer
mb
20240303132017 43 293 3.0 6.0 0.00 0.94 0.11 92 1014.8
20240303131016 43 315 3.0 8.0 0.00 0.94 0.11 92 1014.7
20240303130016 42 315 3.0 6.0 0.00 0.94 0.11 92 1014.7
20240303125016 42 315 4.0 8.0 0.00 0.94 0.11 92 1014.5
20240303124016 42 338 4.0 7.0 0.00 0.94 0.11 92 1014.3
20240303123016 42 315 4.0 7.0 0.00 0.94 0.11 92 1014.3
20240303122016 42 338 3.0 5.0 0.00 0.94 0.11 92 1014.2
20240303121016 42 315 2.0 7.0 0.00 0.94 0.11 92 1013.9
20240303120016 42 293 3.0 9.0 0.00 0.94 0.11 92 1013.9
20240303115016 43 293 3.0 8.0 0.00 0.94 0.11 92 1013.8
20240303114016 43 315 3.0 6.0 0.00 0.94 0.11 92 1013.6
20240303113036 43 338 3.0 5.0 0.00 0.94 0.11 92 1013.6
20240303112016 43 315 3.0 7.0 0.00 0.94 0.11 92 1013.5
20240303111016 43 315 3.0 6.0 0.00 0.94 0.11 92 1013.4
20240303110016 44 315 2.0 4.0 0.00 0.94 0.11 92 1013.4
20240303105016 44 315 2.0 5.0 0.01 0.94 0.11 92 1013.2
20240303104016 44 293 2.0 4.0 0.01 0.94 0.11 92 1013.1
20240303103016 44 315 2.0 7.0 0.01 0.94 0.11 92 1013.2
20240303102016 44 315 3.0 5.0 0.01 0.94 0.11 92 1013.1
20240303101016 44 315 3.0 6.0 0.01 0.94 0.11 91 1013.1
20240303100016 44 338 2.0 3.0 0.01 0.94 0.11 91 1013.1
20240303095016 44 338 2.0 8.0 0.00 0.93 0.10 91 1013.1
20240303094036 44 315 2.0 5.0 0.01 0.93 0.10 91 1013.3
20240303093016 44 315 1.0 2.0 0.02 0.93 0.10 91 1013.3
20240303092016 44 315 3.0 5.0 0.02 0.93 0.10 91 1013.2
20240303091016 45 315 3.0 7.0 0.02 0.93 0.10 91 1013.0
20240303090016 45 315 2.0 4.0 0.02 0.93 0.10 91 1013.0
20240303085016 45 315 2.0 3.0 0.02 0.93 0.10 91 1012.9
20240303084015 45 338 1.0 3.0 0.01 0.92 0.09 91 1012.8
20240303083036 45 0 2.0 3.0 0.01 0.91 0.08 91 1012.8
20240303082015 45 0 1.0 2.0 0.01 0.91 0.08 91 1012.7
20240303081015 45 0.0 0.0 0.02 0.91 0.08 91 1012.7
20240303080017 45 0.0 0.0 0.02 0.91 0.08 91 1012.7
20240303075017 45 0.0 0.0 0.02 0.91 0.08 91 1012.6
20240303074017 45 0.0 0.0 0.02 0.91 0.08 91 1012.9
20240303073017 45 0.0 0.0 0.02 0.90 0.07 91 1012.9
20240303072017 45 0.0 0.0 0.02 0.90 0.07 91 1013.1
20240303071017 45 0.0 0.0 0.02 0.89 0.06 91 1013.2
20240303070017 45 0.0 0.0 0.02 0.89 0.06 91 1013.2
20240303065017 45 0.0 0.0 0.02 0.89 0.06 91 1013.4
20240303064017 45 0.0 0.0 0.04 0.89 0.06 91 1013.6
20240303063018 45 0.0 0.0 0.03 0.88 0.05 91 1013.6
20240303062017 45 0.0 0.0 0.03 0.88 0.05 91 1013.8
20240303061017 45 0.0 0.0 0.02 0.87 0.04 91 1014.1
20240303060017 45 0.0 0.0 0.04 0.87 0.04 91 1014.1
20240303055017 45 0.0 0.0 0.06 0.87 0.04 91 1014.4
20240303054017 45 113 1.0 2.0 0.04 0.85 0.02 91 1014.5
20240303053017 45 113 1.0 2.0 0.06 0.85 0.02 91 1014.5
20240303052017 45 113 1.0 3.0 0.08 0.85 0.02 91 1014.8
20240303051017 45 113 1.0 3.0 0.15 0.85 0.02 91 1015.0
20240303050016 45 23 1.0 3.0 0.17 0.83 0.83 91 1015.0
20240303045017 45 0.0 2.0 0.18 0.81 0.81 91 1015.4
20240303044016 44 23 1.0 2.0 0.19 0.81 0.81 91 1015.7
20240303043016 44 23 1.0 2.0 0.20 0.79 0.79 91 1015.7
20240303042016 44 23 1.0 2.0 0.22 0.77 0.77 91 1016.0
20240303041016 44 0.0 1.0 0.19 0.70 0.70 91 1016.1
20240303040016 44 23 1.0 3.0 0.21 0.66 0.66 91 1016.1
20240303035016 44 23 1.0 2.0 0.20 0.63 0.63 91 1016.2
20240303034016 44 23 2.0 3.0 0.22 0.62 0.62 91 1016.9
20240303033016 44 0 1.0 2.0 0.24 0.59 0.59 91 1016.9
20240303032016 44 0 1.0 2.0 0.24 0.55 0.55 91 1017.1
20240303031016 44 45 1.0 3.0 0.21 0.51 0.51 91 1017.6
20240303030016 44 68 1.0 2.0 0.16 0.45 0.45 91 1017.6
20240303025036 44 68 1.0 2.0 0.15 0.43 0.43 91 1017.8
20240303024016 44 68 1.0 3.0 0.13 0.40 0.40 91 1018.1
20240303023016 44 68 1.0 3.0 0.09 0.35 0.35 91 1018.1
20240303022016 44 113 1.0 2.0 0.06 0.31 0.31 90 1018.5
20240303021016 44 0.0 2.0 0.06 0.30 0.30 90 1019.0
20240303020016 44 113 1.0 2.0 0.06 0.29 0.29 90 1019.0
20240303015016 44 113 1.0 2.0 0.07 0.28 0.28 90 1019.5
20240303014016 44 0.0 2.0 0.07 0.27 0.27 90 1019.7
20240303013016 44 113 1.0 1.0 0.08 0.26 0.26 90 1019.7
20240303012016 44 0.0 0.0 0.09 0.25 0.25 90 1020.0
20240303011016 44 0.0 0.0 0.10 0.24 0.24 90 1020.2
20240303010016 44 0.0 0.0 0.11 0.23 0.23 90 1020.2
20240303005016 44 0.0 1.0 0.12 0.21 0.21 90 1020.3
20240303004016 43 0.0 1.0 0.12 0.20 0.20 90 1020.6
20240303003036 43 0.0 0.0 0.11 0.18 0.18 90 1020.6
20240303002016 43 0.0 0.0 0.09 0.16 0.16 90 1020.7
20240303001015 43 0.0 0.0 0.08 0.14 0.14 90 1021.0
20240303000056 43 0.0 0.0 0.06 0.12 0.12 90 1021.0
20240302235116 43 0.0 1.0 0.04 0.09 0.09 90 1021.1
20240302234016 43 0.0 0.0 0.03 0.08 0.08 90 1021.2
20240302233015 43 0.0 0.0 0.02 0.07 0.07 89 1021.2
20240302232016 43 0.0 0.0 0.03 0.07 0.07 89 1021.4
20240302231015 43 0.0 2.0 0.02 0.06 0.06 89 1021.5
20240302230015 43 0.0 2.0 0.03 0.06 0.06 89 1021.5
20240302225015 43 0.0 2.0 0.03 0.05 0.05 89 1021.7
20240302224017 43 0.0 0.0 0.03 0.05 0.05 89 1021.7
20240302223017 43 0.0 2.0 0.03 0.05 0.05 89 1021.7
20240302222017 43 0.0 1.0 0.02 0.04 0.04 89 1021.9
20240302221017 43 0.0 0.0 0.03 0.04 0.04 89 1022.0
20240302220017 43 0.0 1.0 0.02 0.03 0.03 88 1022.0
20240302215017 44 0.0 0.0 0.01 0.02 0.02 88 1022.1
20240302214017 44 0.0 2.0 0.02 0.02 0.02 88 1022.2
20240302213017 44 0.0 1.0 0.02 0.02 0.02 87 1022.2
20240302212017 44 0.0 2.0 0.02 0.02 0.02 87 1022.2
20240302211017 44 0.0 0.0 0.01 0.01 0.01 87 1022.3
20240302210017 44 0.0 0.0 0.01 0.01 0.01 86 1022.3
20240302205037 44 0.0 0.0 0.01 0.01 0.01 86 1022.6
20240302204017 44 0.0 1.0 0.00 0.00 0.00 86 1022.8
20240302203017 45 0.0 0.0 0.00 0.00 0.00 85 1022.8
20240302202017 45 0.0 0.0 0.00 0.00 0.00 84 1023.1
20240302201017 45 0.0 1.0 0.00 0.00 0.00 83 1023.3
20240302200017 45 0.0 0.0 0.00 0.00 0.00 83 1023.3
20240302195017 45 0.0 1.0 0.00 0.00 0.00 82 1023.5
20240302194017 45 0.0 1.0 0.00 0.00 0.00 81 1023.6
20240302193017 45 0.0 3.0 0.00 0.00 0.00 79 1023.6
20240302192017 45 0.0 0.0 0.00 0.00 0.00 78 1023.7
20240302191017 45 0.0 0.0 0.00 0.00 0.00 76 1023.8
20240302190017 45 0.0 2.0 0.00 0.00 0.00 75 1023.8
20240302185016 45 158 1.0 3.0 0.00 0.00 0.00 75 1023.8
20240302184017 46 135 1.0 4.0 0.00 0.00 0.00 72 1024.1
20240302183016 46 135 1.0 2.0 0.00 0.00 0.00 69 1024.1
20240302182017 46 158 1.0 3.0 0.00 0.00 0.00 69 1024.0
20240302181017 46 0.0 1.0 0.00 0.00 0.00 69 1024.3
20240302180017 45 0.0 0.0 0.00 0.00 0.00 68 1024.2
20240302175016 45 158 1.0 3.0 0.00 0.00 0.00 68 1024.6
20240302174016 45 0.0 2.0 0.00 0.00 0.00 67 1024.8
20240302173016 45 158 1.0 3.0 0.00 0.00 0.00 67 1024.8
20240302172016 44 158 1.0 5.0 0.00 0.00 0.00 66 1025.3
20240302171017 44 0.0 2.0 0.00 0.00 0.00 66 1025.6
20240302170016 44 0.0 2.0 0.00 0.00 0.00 65 1025.6
20240302165016 44 158 1.0 5.0 0.00 0.00 0.00 64 1025.7
20240302164016 44 158 1.0 5.0 0.00 0.00 0.00 64 1025.9
20240302163016 44 158 1.0 3.0 0.00 0.00 0.00 63 1025.9
20240302162016 44 180 1.0 2.0 0.00 0.00 0.00 63 1026.0
20240302161016 43 180 1.0 2.0 0.00 0.00 0.00 64 1026.2
20240302160016 43 135 1.0 4.0 0.00 0.00 0.00 62 1026.2
20240302155016 43 0.0 0.0 0.00 0.00 0.00 62 1026.4
20240302154016 43 135 1.0 5.0 0.00 0.00 0.00 62 1026.3
20240302153016 42 158 1.0 5.0 0.00 0.00 0.00 62 1026.3
20240302152016 42 135 1.0 3.0 0.00 0.00 0.00 61 1026.6
20240302151016 42 135 1.0 2.0 0.00 0.00 0.00 62 1026.6
20240302150016 41 0.0 3.0 0.00 0.00 0.00 62 1026.6
20240302145016 41 0.0 2.0 0.00 0.00 0.00 62 1026.7
20240302144016 41 158 1.0 4.0 0.00 0.00 0.00 63 1026.9
20240302143016 40 0.0 2.0 0.00 0.00 0.00 63 1026.9
20240302142016 39 0.0 3.0 0.00 0.00 0.00 63 1027.1
20240302141016 39 0.0 2.0 0.00 0.00 0.00 65 1027.3
20240302140016 38 203 1.0 2.0 0.00 0.00 0.00 65 1027.3
20240302135016 38 0.0 0.0 0.00 0.00 0.00 67 1027.3
20240302134016 37 0.0 1.0 0.00 0.00 0.00 67 1027.4
20240302133016 37 0.0 2.0 0.00 0.00 0.00 67 1027.4